Regional Weather Roundup
Issued by NWS Pendleton, OR

Home | Current Version | Previous Version | Text Only | Print | Product List | Glossary On
Versions: 1 2 3 4 5 6 7 8 9 10 11 12 13 14 15 16 17 18 19 20 21 22 23 24 25 26 27 28 29 30 31 32 33 34 35 36 37 38 39 40 41 42 43 44 45 46 47 48 49 50
000
ASUS46 KPDT 252025
RWRPDT
PENDLETON REGIONAL WEATHER ROUNDUP
NATIONAL WEATHER SERVICE PENDLETON OREGON
100 PM PDT SAT APR 25 2015

NOTE: FAIR INDICATES FEW OR NO CLOUDS BELOW 12,000 FEET WITH NO
SIGNIFICANT WEATHER AND/OR OBSTRUCTIONS TO VISIBILITY.

# INDICATES UNOFFICIAL STATION AND DATA

WAZ520-252110-
EAST SLOPES OF WASHINGTON CASCADES

CITY            SKY/WX      TMP DP  RH  WIND    PRES   REMARKS
#BULLFROG 2SW   N/A         45  32  60  W5      27.51
#BUMPING DAM    N/A         40  N/A N/A S2      N/A
#CLE ELUM HS    N/A         46  29  51  W7      29.86S
#CLE ELUM LAKE  N/A         45  32  60  W2      29.92S
#CLIFFDEL 2NW   N/A         45  26  47  W7      N/A
#GLENWOOD       N/A         54  35  48  SW5     29.91S
#MANASTASH CYN  N/A         52  25  35  N2      29.85S
#NELSON         N/A         45  33  63  CALM    29.95S
#NELSON 3SW     N/A         42  33  70  NE1     30.15S
#NILE           N/A         52  28  39  W5      29.15S
#RONALD 2NW     N/A         46  32  58  W3      29.78S
#SNOWDEN        N/A         49  24  37  NW5     N/A
#TEANAWAY 4NE   N/A         51  33  50  NW1     N/A
#TROUT LAKE 1NE N/A         50  33  52  W10     29.95S
$$

WAZ521-252110-
SIMCOE HIGHLANDS

CITY            SKY/WX      TMP DP  RH  WIND    PRES   REMARKS
#BICKLETON HS   N/A         47  22  37  W6      N/A
#CENTERVILLE 4W N/A         52  36  54  W14     29.65S
#CENTERVILLE 1SWN/A         51  35  54  W16     29.88F
#GOLDENDALE     N/A         51  32  48  W7      N/A
#GOLDENDALE 1NE N/A         52  24  33  SW9     N/A
#GOODNOE HILLS  N/A         56  33  42  SW25    N/A
#LYLE 6NE       N/A         49  35  58  SW12G24 29.91S WCI 44
$$

WAZ026-252110-
KITTITAS VALLEY

CITY            SKY/WX      TMP DP  RH  WIND    PRES   REMARKS
ELLENSBURG AP   PTCLDY      56  25  30  W18G30  29.87F
YTC-OPS AREA    MOSUNNY     50  21  32  SW16G25 29.82F
#ELLENSBURG CWU N/A         53  25  33  N14     29.83S
#ELLENSBURG 3NE N/A         51  26  37  NW10    29.88S
#ELLENSBURG 1E  N/A         54  26  34  W3      N/A
#KITTITAS 4N    N/A         52  29  41  NW8     28.19S
#KITTITAS 3S    N/A         52  31  44  N9      29.86F
#THORP 6N       N/A         46  28  49  W15G24  29.92S WCI 40
$$

WAZ027-252110-
YAKIMA VALLEY

CITY            SKY/WX      TMP DP  RH  WIND    PRES   REMARKS
SUNNYSIDE AP    PTCLDY      57  25  29  SW8     29.87F
YAKIMA AIRPORT  MOCLDY      60  25  26  S5      29.87F
#DONALD 2NE     N/A         66   4   8  S1      28.72F
#GRANDVIEW      N/A         57  19  22  W1      29.89F
#MABTON         N/A         56  30  37  NW3     29.88S
#NACHES 2SW     N/A         53  28  38  NW3     29.87S
#OUTLOOK DOT    N/A         N/A N/A N/A W6      N/A
#SELAH 8E       N/A         52  23  32  NW7     N/A
#TERRACE HTS    N/A         65  27  24  NW5     29.84F
#WAPATO 4NE     N/A         66   4   8  S1      28.72F
#W YAKIMA       N/A         57  28  33  N3      29.87F
#WHITE SWAN 5E  N/A         58  30  34  E6      29.88F
$$

WAZ028-252110-
LOWER COLUMBIA BASIN...WASHINGTON

CITY            SKY/WX      TMP DP  RH  WIND    PRES   REMARKS
HANFORD         MIXED PCPN  57  28  33  W5      29.87F
PASCO           MOCLDY      58  32  37  SW5     29.90F
PROSSER AWOS    N/A         59  27  29  NW9     29.91F
RICHLAND AWOS   MOCLDY      61  32  33  W5      29.89F
#BASIN CITY 5SW N/A         59  37  44  S3      29.88F
#BENTON CITY    N/A         55  34  45  SW5     29.80F
#CONNELL 5N     N/A         56  33  42  W3      29.88F
#CONNELL 5NW    N/A         54  35  48  SW8     29.85F
#ELTOPIA        N/A         60  40  47  CALM    29.85F
#ELTOPIA 6NW    N/A         53  39  59  S5      28.86F
#KAHLOTUS       N/A         53  32  45  W16     29.88F
#KENNEWICK      N/A         45  32  60  W5      27.51
#KENNEWICK 3S   N/A         57  37  47  S6      29.90F
#PATERSON       N/A         55  38  53  S7      29.88F
#PROSSER        N/A         56  27  33  SW3     29.88F
#SAGEMOOR 2W    N/A         59  40  49  CALM    29.73F
#TOUCHET 2S     N/A         57  39  51  NW5     29.88F
#WEST PASCO     N/A         62  40  44  S5      29.90F
$$

WAZ029-252110-
FOOTHILLS OF THE BLUES...WASHINGTON

CITY            SKY/WX      TMP DP  RH  WIND    PRES   REMARKS
WALLA WALLA AP  CLOUDY      55  33  43  SW13    29.90F
#DAYTON SCHOOL  N/A         52  29  41  NE5     29.91S
#LOWDEN 2SE     N/A         55  38  53  W5      29.87F
#PLEASANT VIEW 1N/A         54  35  48  S7      29.92F
#PRESCOTT       N/A         55  39  55  W5      29.88F
#SUDBURY        N/A         58  N/A N/A CALM    N/A
#WHITMAN COLLEGEN/A         53  37  54  NW5     29.95F
#WAITSBURG 5S   N/A         50  37  61  S6      29.99F
#WAITSBURG 8N   N/A         54  18  24  SE10    29.74F
#WALLA WALLA 5E N/A         54  40  59  S10     N/A
#WALLA WALLA U  N/A         55  37  51  SW8     29.90F
#WHITMAN MISSIONN/A         55  39  55  SW3     29.92S
$$

WAZ030-252110-
BLUE MOUNTAINS...WASHINGTON

CITY            SKY/WX      TMP DP  RH  WIND    PRES   REMARKS
#DIXIE 5SE      N/A         42  34  73  SW8     29.81S
$$

ORZ009-041-WAZ024-252110-
COLUMBIA RIVER GORGE

CITY            SKY/WX      TMP DP  RH  WIND    PRES   REMARKS
HOOD RIVER AP   PTCLDY      57  37  47  NW12    29.96S
THE DALLES AP   PTCLDY      61  33  35  NW18G30 29.93F
#ARLINGTON AIRPON/A         58  34  40  W16     30.16S
#ARLINGTON HS   N/A         59  30  33  N20     29.82F
#CELILO DOT     N/A         58  34  40  SW8     N/A
#MOSIER 1S      N/A         56  26  31  NW14    29.91F
#MURDOCK        N/A         57  39  51  W16G26  29.95F
#RUFUS DOT      N/A         59  36  42  W21     N/A

$$

ORZ510-252110-
NORTH CENTRAL OREGON

CITY            SKY/WX      TMP DP  RH  WIND    PRES   REMARKS
#CHENOWITH 1W   N/A         50  33  52  W25     N/A
#COW CYN RST AREN/A         49  30  48  W10     N/A
#DUFUR 9E       N/A         46  34  63  NW14G24 29.98F WCI 40
#GRASS VALLEY 1SN/A         50  34  54  NW12    29.95F
#KENT DOT       N/A         49  29  46  NW15    N/A    WCI 43
#MAUPIN SCHOOL  N/A         57  34  42  W6      29.93F
#MORO SCHOOL    N/A         51  38  61  NW12    29.93S
#SHANIKO 5WSW   N/A         44  32  62  W8      N/A
#SHANIKO 4NW    N/A         40  33  76  W7      29.89R
#TYGH VALLEY 2NEN/A         54  36  50  N8      29.91F
#WAPANITIA AIRPON/A         53  32  45  W9      29.93F
#WASCO DOT      N/A         56  30  37  W16     N/A
#WASCO AIRPORT  N/A         53  33  46  W17     N/A
#WASCO 5NE      N/A         54  33  45  SW9     29.92S
$$

ORZ511-252110-
CENTRAL OREGON

CITY            SKY/WX      TMP DP  RH  WIND    PRES   REMARKS
BEND AIRPORT    LGT RAIN    46  32  58  S6      29.89R
MADRAS AIRPORT  PTCLDY      50  34  54  N3      29.92F
PRINEVILLE AP   PTCLDY      48  30  49  VRB7    29.89S
REDMOND AIRPORT MOCLDY      51  31  46  NW10    29.88F
#BEND 1SW       N/A         46  32  58  E3      N/A
#BEND-AWBREY    N/A         44  36  73  NE2     29.92F
#BEND-KIM LN    N/A         43  37  79  CALM    29.87R
#CROOKED RVR RANN/A         50  34  54  NE1     29.91S
#CULVER         N/A         50  35  56  NE2     29.85F
#LAKE BILLY CHINN/A         52  -1  11  N6      29.97F
#POWELL BUTTE 3EN/A         47  32  56  W10G26  N/A
#POWELL BUTTE   N/A         50  34  54  E2      29.53S
#PRINEVILLE 3N  N/A         49  35  58  N10     29.88S
#WARM SPRINGS   N/A         51  35  54  SW7     29.89S

$$


ORZ509-252110-
EAST SLOPES OF OREGON CASCADES

CITY            SKY/WX      TMP DP  RH  WIND    PRES   REMARKS
#BLUE BOX PASS  N/A         36  -13 11  SW3     N/A
#CAMP SHERMAN   N/A         48  34  58  SE2     29.93R
#LA PINE 4NW    N/A         45  26  47  W2      29.97S
#SISTERS AIRPOR N/A         48  35  60  N15G28  30.17S WCI 42
#SISTERS ODOT   N/A         48  N/A N/A SW8     N/A
#SISTERS 3N     N/A         48  30  49  N8      29.93S
#SUNRIVER       N/A         48  27  44  W5      29.81S
#TUMALO 3W      N/A         46  30  53  SW8     29.81S
#WANOGA BUTTE D N/A         35  22  59  W7      N/A

$$

ORZ044-252110-
LOWER COLUMBIA BASIN...OREGON

CITY            SKY/WX      TMP DP  RH  WIND    PRES   REMARKS
HERMISTON       MOCLDY      57  37  47  SW8     29.89F
#BOARDMAN 8SW   N/A         59  34  39  W12     29.89F
#IONE SCHOOL    N/A         55  30  38  W9      29.86F
#IRRIGON 4NW    N/A         59  38  45  SW12    N/A
#UMATILLA SCHOOLN/A         58  43  57  W1      29.91F
#UMATILLA       N/A         57  36  45  N3      29.81F
$$

ORZ507-252110-
NORTHERN FOOTHILLS OF THE BLUES

CITY            SKY/WX      TMP DP  RH  WIND    PRES   REMARKS
PENDLETON AIRPT CLOUDY      53  36  52  N9      29.89F
#ADAMS 3WNW     N/A         50  39  66  W5      29.90F
#ATHENA         N/A         51  37  59  W2      29.92F
#CAYUSE         N/A         50  39  66  SW2     29.91F
#HELIX SCHOOL   N/A         49  36  61  SW1     29.90F
#HELIX 3N       N/A         48  36  63  N7      29.87F
#HOLDMAN 6E     N/A         51  34  52  N3      29.71F
#M-F FERNDALE   N/A         57  40  53  CALM    29.89F
#M-F GROVE ELEM N/A         54  33  45  W1      29.88F
#M-FREEWATER 5SEN/A         54  37  52  W5      29.90F
#PENDLETON DNTN N/A         57  35  43  NW3     29.90F
#PDT AQUATIC CTRN/A         56  38  51  W8      29.89F
#PENDLETON 5NE  N/A         52  39  61  CALM    29.87F
#PDT SUNRIDGE   N/A         53  38  57  CALM    29.91F
#PENDLETON 7NW  N/A         54  40  59  W6      29.88F
#PILOT ROCK     N/A         45  32  60  E14     29.93R WCI 39
#TUTUILLA       N/A         52  38  59  W7      29.91F
#UMAPINE 2E     N/A         55  42  61  W3      29.87F
#WESTON SCHOOL  N/A         50  32  50  NW9     29.88F

$$

ORZ508-252110-
SOUTHERN FOOTHILLS OF THE BLUES

CITY            SKY/WX      TMP DP  RH  WIND    PRES   REMARKS
LEXINGTON       MOCLDY      57  32  38  W12G24  29.90F
#AJAX           N/A         49  25  39  W9      29.85S
#CONDON SCHOOL  N/A         47  31  53  CALM    29.85F
#CONDON 5W      N/A         46  29  51  NW14    29.85S WCI 40
#FOSSIL SCHOOL  N/A         45  34  65  W3      29.87F
#HEPPNER EOC    N/A         48  35  60  W10G24  29.84S
#HEPPNER 4NE    N/A         47  33  58  NW7     29.90F
#LEXINGTON 2SE  N/A         55  33  43  W7      29.86F
#MIKKALO        N/A         55  29  37  NW13    29.90F
#RUGGS 5NE      N/A         43  36  76  S6      30.04
#RUGGS 2SW      N/A         46  37  71  W5      29.93F

$$

ORZ502-503-252110-
BLUE MOUNTAINS

CITY            SKY/WX      TMP DP  RH  WIND    PRES   REMARKS
MEACHAM         LGT RAIN    40  33  76  CALM    29.87S
#BATTLE MTN DOT N/A         35  35  100 CALM    N/A
#HEPPNER 15SE   N/A         38  35  89  CALM    29.78
#LADD CYN SMT   N/A         44  24  45  NW8     N/A
#LADD CREEK ODOTN/A         45  24  43  SE1     N/A
#LONG CREEK HS  N/A         45  37  73  CALM    29.80F
#N POWDER DOT   N/A         45  36  70  SW2     N/A
#PIKES PEAK     N/A         38  33  82  SW5     27.99S
#TOLLGATE       N/A         34  31  89  W3      29.79F
#TROY SCHOOL    N/A         48  40  74  W3      29.73R
#UKIAH          N/A         36  33  89  N6      29.95R
#WESTON 4E      N/A         43  34  70  SW8     29.86F
$$

ORZ505-252110-
JOHN DAY BASIN

CITY            SKY/WX      TMP DP  RH  WIND    PRES   REMARKS
JOHN DAY        PTCLDY      52  30  43  W12     29.85S
#JOHN DAY KJDY  N/A         58  25  28  W6      29.90F
#DAYVILLE SCHOOLN/A         49  31  50  S12     29.84F WCI 44
#MITCHELL       N/A         43  37  79  N1      30.04R
#MONUMENT HS    N/A         55  26  32  N2      29.88S
#MT. VERNON 5SE N/A         47  26  44  S3      29.80F
#WINLOCK        N/A         49  31  50  CALM    29.96F
$$

ORZ506-252110-
OCHOCO AND JOHN DAY HIGHLANDS

CITY            SKY/WX      TMP DP  RH  WIND    PRES   REMARKS
#BUCK CREEK DOT N/A         44  44  100 NW14    N/A    WCI 37
#HORSE RIDGE DO N/A         40  29  64  NW10    N/A
#PAULINA SCHOOL N/A         39  33  79  NE2     29.83F
#PINE MTN OBS   N/A         38  20  48  NW2     N/A
#PRAIRIE CITY   N/A         52  33  48  NW2     29.83F
#SENECA         N/A         45  N/A N/A N2      N/A
#SENECA 9NW     N/A         47  27  45  E2      29.87S
$$

ORZ049-252110-
GRANDE RONDE VALLEY

CITY            SKY/WX      TMP DP  RH  WIND    PRES   REMARKS
LA GRANDE       CLOUDY      41  28  59  NW17G25 29.88R WCI 33
#COVE           N/A         48  36  63  NW1     29.88R
#COVE SCHOOL    N/A         51  34  52  W1      29.84S
#ELGIN 3N       N/A         51  30  44  W5      29.84S
#IMBLER SCHOOL  N/A         48  31  51  SW8     29.84S
#ISLAND CITY 4N N/A         55  38  53  CALM    29.99R
#LADD CYN DOT   N/A         49  32  52  NW3     N/A
#LA GRANDE ELEM N/A         40  35  82  W2      29.92R
#UNION 1S       N/A         49  33  54  W2      29.79S
$$

ORZ050-252110-
WALLOWA COUNTY

CITY            SKY/WX      TMP DP  RH  WIND    PRES   REMARKS
JOSEPH AIRPORT  MOCLDY      43  32  65  W5      29.84F
#ENTERPRISE HS  N/A         44  36  73  CALM    29.86F
#IMNAHA SCHOOL  N/A         52  35  52  N7      29.85R
#IMNAHA 10S     N/A         50  33  52  NE7     29.83S
#JOSEPH 3N      N/A         42  35  76  W1      29.87F
#JOSEPH 3W      N/A         41  33  73  CALM    29.70F
#LOSTINE        N/A         47  31  53  E1      29.67F
#MT HOWARD 8000 N/A         26  24  92  W1      29.77R
#PROMISE 1S     N/A         44  30  58  S5      29.97R
#SHEEP RDG 7000 N/A         27  25  92  CALM    29.95F
#WALLOWA SCHOOL N/A         49  28  44  N1      30.80F



$$



USA.gov is the U.S. government's official web portal to all federal, state and local government web resources and services.